When you browse on this site, cookies collect data to enhance your experience and personalize the content and advertising you see.
Visit our Privacy Policy to learn more. By continuing to use the site, you agree to this use of cookies and data.
  • In Schweiz
  • Länderverzeichnis
  • Für 7 Tage
  • Wassertemperatur
  • Satellitenkarten
  • Wetterkarte
  • Widgets
  • user-avatar
    Anmelden

    Stündliche Wetter Staryy Orebash

    Heute, 20 November, Dienstag

    Zeit Temperatur Niederschläge Wind Luftdruck Luftfeuchtigkeit
    00:00 -1°C° 0.1 mm 0 m/S 754 mmHg 96%
    01:00 -1°C° 0.1 mm 0 m/S 754 mmHg 96%
    02:00 0°C° 0.1 mm 1 m/S 754 mmHg 96%
    03:00 0°C° 0.1 mm 1 m/S 754 mmHg 96%
    04:00 -1°C° 0 mm 1 m/S 754 mmHg 96%
    05:00 -1°C° 0.1 mm 1 m/S 754 mmHg 96%
    06:00 -1°C° 0.1 mm 1 m/S 754 mmHg 96%
    07:00 -1°C° 0.1 mm 1 m/S 754 mmHg 95%
    08:00 -1°C° 0 mm 1 m/S 754 mmHg 95%
    09:00 -1°C° 0 mm 1 m/S 754 mmHg 94%
    10:00 0°C° 0 mm 1 m/S 753 mmHg 92%
    11:00 0°C° 0 mm 1 m/S 753 mmHg 91%
    12:00 0°C° 0 mm 1 m/S 753 mmHg 90%
    13:00 0°C° 0 mm 1 m/S 753 mmHg 88%
    14:00 0°C° 0 mm 1 m/S 752 mmHg 90%
    15:00 -1°C° 0 mm 1 m/S 752 mmHg 91%
    16:00 -1°C° 0 mm 1 m/S 752 mmHg 93%
    17:00 -1°C° 0 mm 1 m/S 752 mmHg 93%
    18:00 -4°C° 0 mm 2 m/S 751 mmHg 93%
    19:00 -4°C° 0 mm 2 m/S 751 mmHg 93%
    20:00 -4°C° 0 mm 2 m/S 750 mmHg 92%
    21:00 -5°C° 0 mm 3 m/S 750 mmHg 90%
    22:00 -5°C° 0 mm 3 m/S 749 mmHg 89%
    23:00 -5°C° 0 mm 4 m/S 749 mmHg 88%

    Morgen, 21 November, Mittwoch

    Zeit Temperatur Niederschläge Wind Luftdruck Luftfeuchtigkeit
    00:00 -5°C° 0 mm 4 m/S 748 mmHg 87%
    01:00 -7°C° 0 mm 4 m/S 748 mmHg 86%
    02:00 -7°C° 0 mm 5 m/S 747 mmHg 86%
    03:00 -7°C° 0 mm 5 m/S 746 mmHg 86%
    04:00 -7°C° 0 mm 5 m/S 746 mmHg 86%
    05:00 -7°C° 0.2 mm 5 m/S 745 mmHg 87%
    06:00 -7°C° 0.2 mm 5 m/S 744 mmHg 87%
    07:00 -8°C° 0.2 mm 6 m/S 743 mmHg 88%
    08:00 -8°C° 0.5 mm 6 m/S 743 mmHg 89%
    09:00 -6°C° 0.5 mm 6 m/S 742 mmHg 89%
    10:00 -6°C° 0.5 mm 6 m/S 741 mmHg 90%
    11:00 -6°C° 0.4 mm 6 m/S 741 mmHg 89%
    12:00 -6°C° 0.4 mm 6 m/S 740 mmHg 88%
    13:00 -6°C° 0.4 mm 6 m/S 739 mmHg 87%
    14:00 -6°C° 0.2 mm 6 m/S 739 mmHg 88%
    15:00 -5°C° 0.2 mm 5 m/S 739 mmHg 88%
    16:00 -5°C° 0.2 mm 5 m/S 738 mmHg 89%
    17:00 -6°C° 0.2 mm 5 m/S 738 mmHg 85%
    18:00 -6°C° 0.2 mm 6 m/S 738 mmHg 82%
    19:00 -6°C° 0.2 mm 6 m/S 738 mmHg 79%
    20:00 -8°C° 0 mm 6 m/S 738 mmHg 80%
    21:00 -9°C° 0 mm 6 m/S 738 mmHg 80%
    22:00 -10°C° 0 mm 6 m/S 738 mmHg 81%
    23:00 -10°C° 0.1 mm 6 m/S 739 mmHg 82%

    übermorgen, 22 November, Donnerstag

    Zeit Temperatur Niederschläge Wind Luftdruck Luftfeuchtigkeit
    00:00 -10°C° 0.1 mm 6 m/S 739 mmHg 82%
    01:00 -11°C° 0.1 mm 7 m/S 739 mmHg 83%
    02:00 -10°C° 0.1 mm 6 m/S 739 mmHg 83%
    03:00 -10°C° 0.1 mm 6 m/S 739 mmHg 84%
    04:00 -11°C° 0.1 mm 6 m/S 739 mmHg 84%
    05:00 -11°C° 0 mm 5 m/S 739 mmHg 85%
    06:00 -11°C° 0 mm 5 m/S 740 mmHg 86%
    07:00 -11°C° 0 mm 4 m/S 740 mmHg 87%
    08:00 -11°C° 0 mm 4 m/S 740 mmHg 87%
    09:00 -11°C° 0 mm 4 m/S 740 mmHg 87%
    10:00 -11°C° 0 mm 4 m/S 740 mmHg 87%
    11:00 -11°C° 0 mm 4 m/S 740 mmHg 85%
    12:00 -11°C° 0 mm 4 m/S 740 mmHg 83%
    13:00 -10°C° 0 mm 3 m/S 740 mmHg 81%
    14:00 -10°C° 0 mm 3 m/S 740 mmHg 83%
    15:00 -12°C° 0 mm 3 m/S 739 mmHg 85%
    16:00 -12°C° 0 mm 3 m/S 739 mmHg 87%
    17:00 -12°C° 0.1 mm 3 m/S 738 mmHg 87%
    18:00 -11°C° 0.1 mm 4 m/S 737 mmHg 88%
    19:00 -11°C° 0.1 mm 4 m/S 736 mmHg 88%
    20:00 -11°C° 0.4 mm 5 m/S 736 mmHg 90%
    21:00 -10°C° 0.4 mm 5 m/S 735 mmHg 91%
    22:00 -10°C° 0.4 mm 6 m/S 734 mmHg 93%
    23:00 -9°C° 0.4 mm 6 m/S 734 mmHg 92%

    23 November, Freitag

    Zeit Temperatur Niederschläge Wind Luftdruck Luftfeuchtigkeit
    00:00 -9°C° 0.4 mm 6 m/S 733 mmHg 91%
    01:00 -8°C° 0.4 mm 6 m/S 733 mmHg 90%
    02:00 -7°C° 0.1 mm 5 m/S 733 mmHg 91%
    03:00 -8°C° 0.1 mm 4 m/S 733 mmHg 91%
    04:00 -8°C° 0.1 mm 4 m/S 732 mmHg 92%
    05:00 -7°C° 0 mm 3 m/S 733 mmHg 92%
    06:00 -8°C° 0 mm 3 m/S 733 mmHg 93%
    07:00 -8°C° 0 mm 3 m/S 733 mmHg 93%
    08:00 -9°C° 0 mm 3 m/S 734 mmHg 92%
    09:00 -10°C° 0 mm 4 m/S 735 mmHg 90%
    10:00 -11°C° 0 mm 4 m/S 735 mmHg 89%
    11:00 -12°C° 0 mm 5 m/S 736 mmHg 88%
    12:00 -12°C° 0 mm 6 m/S 737 mmHg 87%
    13:00 -14°C° 0 mm 6 m/S 738 mmHg 85%
    14:00 -14°C° 0 mm 6 m/S 738 mmHg 84%
    15:00 -14°C° 0 mm 6 m/S 739 mmHg 82%
    16:00 -14°C° 0 mm 6 m/S 740 mmHg 80%
    17:00 -15°C° 0 mm 6 m/S 741 mmHg 82%
    18:00 -15°C° 0 mm 6 m/S 742 mmHg 84%
    19:00 -16°C° 0 mm 6 m/S 743 mmHg 86%
    20:00 -16°C° 0 mm 6 m/S 743 mmHg 87%
    21:00 -17°C° 0 mm 5 m/S 744 mmHg 89%
    22:00 -18°C° 0 mm 5 m/S 745 mmHg 90%
    23:00 -17°C° 0 mm 4 m/S 745 mmHg 91%

    24 November, Samstag

    Zeit Temperatur Niederschläge Wind Luftdruck Luftfeuchtigkeit
    00:00 -17°C° 0 mm 4 m/S 746 mmHg 92%
    01:00 -17°C° 0 mm 3 m/S 747 mmHg 93%
    02:00 -17°C° 0 mm 3 m/S 747 mmHg 93%
    03:00 -17°C° 0 mm 3 m/S 747 mmHg 94%
    04:00 -17°C° 0 mm 3 m/S 747 mmHg 95%
    05:00 -16°C° 0 mm 3 m/S 747 mmHg 95%
    06:00 -16°C° 0 mm 3 m/S 747 mmHg 95%
    07:00 -16°C° 0 mm 4 m/S 747 mmHg 95%
    08:00 -15°C° 0 mm 4 m/S 747 mmHg 94%
    09:00 -14°C° 0 mm 5 m/S 747 mmHg 92%
    10:00 -13°C° 0 mm 5 m/S 747 mmHg 91%
    11:00 -12°C° 0.1 mm 6 m/S 747 mmHg 90%
    12:00 -11°C° 0.1 mm 6 m/S 746 mmHg 90%
    13:00 -12°C° 0.1 mm 7 m/S 746 mmHg 90%
    14:00 -11°C° 0.2 mm 7 m/S 746 mmHg 89%
    15:00 -11°C° 0.2 mm 7 m/S 745 mmHg 89%
    16:00 -11°C° 0.2 mm 7 m/S 745 mmHg 89%
    17:00 -11°C° 0.1 mm 7 m/S 745 mmHg 88%
    18:00 -11°C° 0.1 mm 7 m/S 745 mmHg 87%
    19:00 -11°C° 0.1 mm 8 m/S 745 mmHg 86%
    20:00 -9°C° 0.1 mm 7 m/S 745 mmHg 86%
    21:00 -9°C° 0.1 mm 7 m/S 744 mmHg 86%
    22:00 -9°C° 0.1 mm 7 m/S 744 mmHg 86%
    23:00 -9°C° 0.1 mm 7 m/S 744 mmHg 87%

    25 November, Sonntag

    Zeit Temperatur Niederschläge Wind Luftdruck Luftfeuchtigkeit
    00:00 -8°C° 0.1 mm 7 m/S 744 mmHg 87%
    01:00 -8°C° 0.1 mm 7 m/S 744 mmHg 88%
    02:00 -8°C° 0.1 mm 7 m/S 743 mmHg 87%
    03:00 -8°C° 0.1 mm 7 m/S 743 mmHg 87%
    04:00 -8°C° 0.1 mm 7 m/S 743 mmHg 86%
    05:00 -8°C° 0.1 mm 7 m/S 743 mmHg 86%
    06:00 -8°C° 0.1 mm 8 m/S 743 mmHg 86%
    07:00 -8°C° 0.1 mm 8 m/S 742 mmHg 86%
    08:00 -7°C° 0.1 mm 7 m/S 743 mmHg 86%
    09:00 -7°C° 0.1 mm 7 m/S 743 mmHg 86%
    10:00 -7°C° 0.1 mm 7 m/S 744 mmHg 86%
    11:00 -7°C° 0 mm 7 m/S 744 mmHg 85%
    12:00 -7°C° 0 mm 7 m/S 745 mmHg 84%
    13:00 -6°C° 0 mm 7 m/S 745 mmHg 83%
    14:00 -6°C° 0 mm 6 m/S 746 mmHg 84%
    15:00 -6°C° 0 mm 5 m/S 746 mmHg 85%
    16:00 -7°C° 0 mm 5 m/S 747 mmHg 86%
    17:00 -7°C° 0 mm 4 m/S 747 mmHg 87%
    18:00 -7°C° 0 mm 4 m/S 748 mmHg 89%
    19:00 -7°C° 0 mm 4 m/S 748 mmHg 90%
    20:00 -8°C° 0 mm 4 m/S 749 mmHg 90%
    21:00 -7°C° 0 mm 3 m/S 749 mmHg 91%
    22:00 -7°C° 0 mm 3 m/S 749 mmHg 91%
    23:00 -7°C° 0 mm 3 m/S 749 mmHg 92%
    Mehr zeigen